Regional Weather Roundup
Issued by NWS Grand Forks, ND

Home | Current Version | Previous Version | Text Only | Print | Product List | Glossary Off
Versions: 1 2 3 4 5 6 7 8 9 10 11 12 13 14 15 16 17 18 19 20 21 22 23 24 25 26 27 28 29 30 31 32 33 34 35 36 37 38 39 40 41 42 43 44 45 46 47 48 49 50

000
ASUS43 KFGF 181610
RWRFGF
PRAIRIE TO PINES  WEATHER ROUNDUP
NATIONAL WEATHER SERVICE EASTERN NORTH DAKOTA/GRAND FORKS ND
1100 AM CDT WED APR 18 2018

 **SATELLITE DATA USED TO AUGMENT SKY COVER AT AUTOMATED STATIONS**
 *****  WEATHER ACROSS EASTERN NORTH DAKOTA  *****

CITY           SKY/WX    TMP DP  RH WIND       PRES   REMARKS
GRAND FORKS    FAIR      40  20  44 NE10      30.15R
GRAND FRKS AFB FAIR      44  18  35 N8        30.15R
GRAND FRKS NWS   N/A     41  23  48 NE7       30.12R
DEVILS LAKE    FAIR      40  25  55 NE7       30.15R
FARGO          FAIR      43  27  53 N15       30.08R
WAHPETON ARPT  PTSUNNY   41  30  65 N15G21    30.04F
$$

 ***** WEATHER ACROSS CENTRAL AND WESTERN NORTH DAKOTA  *****

CITY           SKY/WX    TMP DP  RH WIND       PRES   REMARKS
BISMARCK       CLOUDY    40  36  86 NW7       30.15R
MINOT          FAIR      39  32  76 N5        30.16R
JAMESTOWN      FAIR      45  31  58 N14       30.09R
MINOT AFB      FAIR      37  33  83 NW3       30.15R
GARRISON         N/A     36  34  92 W9        30.15R
WILLISTON      CLOUDY    35  34  96 CALM      30.17R FOG
DICKINSON      CLOUDY    36  34  92 CALM      30.13R
HETTINGER      FAIR      38  33  82 VRB5      30.15R
$$

 *****  OTHER AIRPORT OBSERVATIONS IN OUR AREA  *****

CITY           SKY/WX    TMP DP  RH WIND       PRES   REMARKS
WALHALLA       FAIR      43  18  36 VRB5      30.18R
GRAFTON AIRPOR FAIR      43  21  42 NE6       30.18S
VALLEY CITY AR FAIR      37  28  70 N12       30.11R
CANDO          FAIR      45  25  45 VRB6      30.17R
CAVALIER APRT    N/A     43  21  42 E6        30.18R
GWINNER          N/A     39  32  75 N13       30.07S
SHEYENNE NWR     N/A     44  28  52 N10       29.95S
ROLLA          FAIR      41  27  56 CALM      30.15R
 ***** THE ABOVE OBSERVATIONS ARE NON NWS ARE NOT QUALITY
       CONTROLLED AND MAY MIS-REPORT RAIN FOR SNOW...
$$

  *****  WEATHER ACROSS NORTHERN MINNESOTA  *****

CITY           SKY/WX    TMP DP  RH WIND       PRES   REMARKS
FLAG ISLAND    FAIR      34  18  51 N9        30.21R
WARROAD        FAIR      36  21  55 NE10      30.20R
ROSEAU         FAIR      39  25  56 NE14      30.18R
HALLOCK        FAIR      43  16  33 E6        30.17R
THF RVR FALLS  FAIR      41  18  39 NE14      30.13R
BAUDETTE       FAIR      40  21  46 NE9       30.16S
WASKISH        PTSUNNY   43  25  49 NE12G20   30.11F
CROOKSTON      FAIR      39  21  48 NE9       30.13S
GREENBUSH NDAW   N/A     37  25  60 NE13        N/A
$$
  *****  WEATHER ACROSS CENTRAL AND WEST MINNESOTA  *****

CITY           SKY/WX    TMP DP  RH WIND       PRES   REMARKS
FOSSTON        FAIR      39  18  41 NE12G21   30.09R
BEMIDJI        FAIR      37  19  48 NE16      30.07R
PARK RAPIDS    FAIR      40  15  36 NE13G18   30.03R
ELBOW LAKE     CLOUDY    38  23  54 E12       30.03R
WADENA         CLOUDY    37  19  48 N13       30.02F
DETROIT LAKES  FAIR      43  18  36 NE10      30.06R
MOORHEAD       FAIR      43  27  52 N12       30.08R
FERGUS FALLS   FAIR      41  19  42 NE7       30.03R
MORRIS MN      CLOUDY    37  30  75 N8        30.01R
STAPLES        PTSUNNY   37  18  44 N7        30.01F
$$
  *****  WEATHER ELSEWHERE ACROSS MINNESOTA  *****

CITY           SKY/WX    TMP DP  RH WIND       PRES   REMARKS
DULUTH         PTSUNNY   35  25  66 NE14G24   30.01S
INTRNTL FALLS  FAIR      37  15  40 N12       30.15R
ELY            FAIR      37  18  44 NE7       30.06F
CLOQUET        CLOUDY    34  21  60 NE15G25   30.01S WCI  24
WHEATON        CLOUDY    37  28  70 N9        30.06S
BRAINERD       CLOUDY    38  21  50 NE14      30.01F
HIBBING        FAIR      37  20  50 NE12G23   30.03F
ALEXANDRIA     CLOUDY    39  23  52 NE15      30.01R
SAINT CLOUD    CLOUDY    35  25  66 N9        30.00R
MINNEAPOLIS    FLURRIES  33  28  81 N10       29.97S WCI  25
$$

  *****  WEATHER ACROSS SOUTH DAKOTA  *****

CITY           SKY/WX    TMP DP  RH WIND       PRES   REMARKS
SIOUX FALLS    LGT SNOW  32  30  92 N20G29    30.00R VSB 1   WCI  20
BROOKINGS      CLOUDY    35  28  75 N10       30.02R
WATERTOWN      CLOUDY    36  28  73 N10       30.02R
HURON          CLOUDY    33  31  92 NW10      30.09R WCI  25
SISSETON         N/A     38  32  79 NW13      30.04S
ABERDEEN       CLOUDY    41  31  67 N12       30.08R
MITCHELL       SNOW      34  32  92 N13       30.08R VSB 1/2 WCI  25
PIERRE         LGT SNOW  33  33 100 NW14      30.12R FOG     WCI  23
MOBRIDGE       CLOUDY    36  33  89 NW13      30.10R
RAPID CITY     FAIR      48  31  51 N29G37    30.14R
$$

  *****  SOME WEATHER IN NEARBY STATES *****

CITY           SKY/WX    TMP DP  RH WIND       PRES   REMARKS
GLASGOW MT     FAIR      45  34  65 N6        30.19R
GREAT FALLS MT FAIR      42  19  39 SW15G25   30.20S
CHEYENNE WY    FAIR      38  14  37 NW18G33   30.23R
SCOTTSBLUFF NE FAIR      48  30  49 NW25G31   30.20R
OMAHA NE       FLURRIES  34  30  85 N17       29.94R WCI  23
DES MOINES IA  FRZ DRZL  33  29  85 N8        29.83R
DAVENPORT IA   CLOUDY    32  28  85 NE17      29.76F WCI  21
CHICAGO IL     CLOUDY    37  26  64 E18       29.79F
EAU CLAIRE WI  CLOUDY    33  24  69 E12       29.94S WCI  24
LA CROSSE WI   CLOUDY    35  24  64 NE9       29.89F
$$

  *****  SOME NATIONAL WEATHER *****

CITY           SKY/WX    TMP DP  RH WIND       PRES   REMARKS
LA GUARDIA NY  PTSUNNY   48  26  42 W12G24    29.81R
RALEIGH NC     PTSUNNY   62  49  62 SW8       29.91F
ATLANTA GA     FAIR      71  49  45 SW15G22   30.02R
NEW ORLEANS LA PTSUNNY   76  64  66 SW9       30.07R
OKLAHOMA CITY  FAIR      59  33  37 N21G31    30.12R
ALBUQUERQUE NM FAIR      47   1  15 VRB6      30.28R
SALT LAKE CITY PTSUNNY   45  22  40 SE5       30.24F
LOS ANGELES CA FAIR      62  38  40 SE8       30.04S
BOISE ID       FAIR      48  19  31 E17       30.17S
SEATTLE WA     CLOUDY    47  38  71 N7        30.22R
$$

*** WEATHER ACROSS MANITOBA...SASKATCHEWAN AND ONTARIO ***
                ***ONTARIO***

CITY           SKY/WX    TMP DP  RH WIND       PRES   REMARKS
GERALDTON      PTSUNNY   32   7  34 NE17G28   30.09R WCI  21
THUNDER BAY    PTSUNNY   39   7  26 NE8G17    30.11R
SIOUX LOOKOUT  MOSUNNY   39  -2  17 NE7       30.19R
TORONTO        CLOUDY    37  27  65 W15       29.80R
BIG TROUT LK   SUNNY     30   1  29 SE6       30.34F WCI  24
PICKLE LAKE    MOSUNNY   36  -6  17 NE13      30.23S
DRYDEN         SUNNY     36   1  23 NE8       30.19R
KENORA         MOSUNNY   36   3  25 N8        30.21R
$$
                *** MANITOBA***

CITY           SKY/WX    TMP DP  RH WIND       PRES   REMARKS
BRANDON        PTSUNNY   39  23  52 NE3       30.17R
DAUPHIN        SUNNY     41  23  48 N5        30.18R
ISLAND LAKE    MOSUNNY   37  12  35 SE9       30.27F
PILOT MOUND    NOT AVBL
THE PAS        CLOUDY    39  21  48 S10       30.14S
THOMPSON       PTSUNNY   43   9  24 S8        30.15F
WINNIPEG       PTSUNNY   43   9  24 VRB2      30.21S
LYNN LAKE      PTSUNNY   39  30  70 SW15      30.01S
CHURCHILL      MOSUNNY   34  19  55 S13       30.22F WCI  25
GILLAM         PTSUNNY   39   5  24 S10G18    30.26F
$$
                ***SASKATCHEWAN***

CITY           SKY/WX    TMP DP  RH WIND       PRES   REMARKS
ESTEVAN        FOG       32  32 100 W5        30.15S VSB 1/8
KINDERSLEY     SUNNY     39  32  75 SW12      30.15R
LLOYDMINSTER   MOSUNNY   37  28  70 W14G21    30.08R
PRINCE ALBERT  MOSUNNY   37  30  75 SW9       30.15R
REGINA         FOG       32  32 100 NW5       30.18R VSB 1
YORKTON        CLOUDY    36  28  75 S3        30.16S
N. BATTLEFORD  SUNNY     37  28  70 W9        30.15R
LA RONGE       CLOUDY    37  25  60 SW10G22   30.03R
SASKATOON      MOSUNNY   37  28  70 SW6       30.18R
SWIFT CURRENT  SUNNY     39  27  60 N5        30.17R
$$
NOTE: THESE ARE AUTOMATED STATIONS WITH LIMITED QUALITY CONTROL
      "FAIR" INDICATES FEW OR NO CLOUDS BELOW 12,000 FEET WITH NO
      SIGNIFICANT WEATHER AND/OR OBSTRUCTIONS TO VISIBILITY.
      SKY/WX - SKY CONDITION AND SIGNIFICANT WEATHER.
      TMP - AIR TEMPERATURE.    DP   - DEWPOINT TEMPERATURE.
      RH  - RELATIVE HUMIDITY.  PRES - PRESSURE.
      HX  - HEAT INDEX.         WCI  - WIND CHILL INDEX.
$




USA.gov is the U.S. government's official web portal to all federal, state and local government web resources and services.